Regional Weather Roundup
Issued by NWS Cleveland, OH

Home | Current Version | Previous Version | Text Only | Print | Product List | Glossary Off
Versions: 1 2 3 4 5 6 7 8 9 10 11 12 13 14 15 16 17 18 19 20 21 22 23 24 25 26 27 28 29 30 31 32 33 34 35 36 37 38 39 40 41 42 43 44 45 46 47 48 49 50

620
ASUS41 KCLE 241912
RWRCLE
OHIO REGIONAL WEATHER ROUNDUP
NATIONAL WEATHER SERVICE WILMINGTON, OH
200 PM EST FRI FEB 24 2017

NOTE: "FAIR" INDICATES FEW OR NO CLOUDS BELOW 12,000 FEET WITH NO
SIGNIFICANT WEATHER AND/OR OBSTRUCTIONS TO VISIBILITY.

OHZ001>008-015>018-024>027-034-035-043-044-242000-
   NORTHWEST OHIO

CITY           SKY/WX    TMP DP  RH WIND       PRES   REMARKS
DEFIANCE       CLOUDY    68  54  60 S15       29.50F
FINDLAY        FAIR      75  53  46 S28G33    29.53F
TOLEDO EXPRESS CLOUDY    70  55  59 S18G25    29.50F
TOLEDO EXEC    PTSUNNY   73  54  51 SW23G32   29.52F
LIMA           FAIR      72  54  53 S21G36    29.53F
$$

OHZ009>014-019>023-028>033-038-089-242000-
   NORTHEAST OHIO

CITY           SKY/WX    TMP DP  RH WIND       PRES   REMARKS
CLE-HOPKINS    PTSUNNY   75  52  44 S18G30    29.60F
CLE-LAKEFRONT  FAIR      76  52  43 S22G28    29.57F
CUY CO. ARPT   PTSUNNY   75  54  46 SW18G31   29.60F
LORAIN-ELYRIA  FAIR      73  52  47 S25G31    29.57F
ASHTABULA      FAIR      73  53  49 S17G31    29.62F
AKRON-CANTON   PTSUNNY   74  52  46 SW21G29   29.63F
WOOSTER        FAIR      71  53  52 S21G28    29.62F
MANSFIELD      FAIR      72  54  53 S21G36    29.59F
YOUNGSTOWN     FAIR      74  52  46 S16G26    29.65F
$$

OHZ042-051>053-060>062-070>072-077>081-242000-
  SOUTHWEST OHIO

CITY           SKY/WX    TMP DP  RH WIND       PRES   REMARKS
CINC-COVINGTON PTSUNNY   76  53  44 S25G33    29.59F
CINC-LUNKEN    FAIR      77  55  46 S24G33    29.58F
HAMILTON       FAIR      77  53  43 S15G31    29.58F
DAYTON         PTSUNNY   74  52  46 S25G35    29.55F
WRIGHT-PAT AFB PTSUNNY   75  53  46 S24G32    29.56F
DAYTON GENERAL FAIR      75  52  44 S16G31    29.56F
WILMINGTON     FAIR      73  54  51 S25G32    29.59F
$$

OHZ036-037-039>041-045>050-054>059-063>069-073>076-082>088-242000-
  CENTRAL AND SOUTHEAST OHIO

CITY           SKY/WX    TMP DP  RH WIND       PRES   REMARKS
COLUMBUS       PTSUNNY   76  54  46 S18G29    29.61F
OSU AIRPORT    FAIR      73  55  53 S21G32    29.59F
BOLTON FIELD   SUNNY     73  55  53 SW22G38   29.62F
RICKENBACK AFB FAIR      74  53  47 S22       29.61F
NEWARK         FAIR      74  52  46 S18G28    29.63F
MARION         FAIR      72  54  53 S25G36    29.58F
LANCASTER      FAIR      76  53  44 S20G26    29.64F
ZANESVILLE     FAIR      76  52  43 SW17G24   29.65F
NEW PHILLY     FAIR      75  52  44 S10G21    29.65F
$$




USA.gov is the U.S. government's official web portal to all federal, state and local government web resources and services.